Location: Albany
(35.0000°S, 118.0000°E)
Time: 15:18:52
(UTC-05:00)

ISS - All Passes

Search period start: 07 December 2016 00:00
Search period end: 17 December 2016 00:00
Orbit: 401 x 410 km, 51.6° (Epoch: 08 December)

Date Brightness Start Highest point End Pass type
(mag) Time Alt. Az. Time Alt. Az. Time Alt. Az.
07 Dec - 13:30:03 10° N 13:32:42 22° NE 13:35:23 10° ESE visible
07 Dec - 15:06:08 10° W 15:09:05 29° SW 15:12:05 10° SSE visible
07 Dec - 20:01:27 10° S 20:02:32 11° SSE 20:03:36 10° SE daylight
07 Dec - 21:36:14 10° SW 21:39:33 72° SE 21:42:50 10° NE daylight
08 Dec - 12:40:01 10° NE 12:40:59 11° NE 12:41:58 10° ENE visible
08 Dec - 14:13:49 10° WNW 14:17:05 56° SW 14:20:23 10° SE visible
08 Dec - 20:44:29 10° SSW 20:47:34 35° SE 20:50:38 10° ENE daylight
08 Dec - 22:21:32 10° W 22:23:51 18° NW 22:26:11 10° N daylight
09 Dec - 13:21:53 10° NW 13:25:10 67° NE 13:28:29 10° SE visible
09 Dec - 14:59:57 10° WSW 15:01:58 15° SSW 15:03:59 10° S visible
09 Dec - 19:52:55 10° SSW 19:55:28 20° SSE 19:58:02 10° E daylight
09 Dec - 21:28:59 10° WSW 21:32:04 37° NW 21:35:08 10° NNE daylight
10 Dec - 12:30:21 10° NNW 12:33:18 30° NE 12:36:16 10° ESE visible
10 Dec - 14:07:02 10° W 14:09:49 24° SSW 14:12:35 10° SSE visible
10 Dec - 19:01:37 10° S 19:03:17 13° SSE 19:04:57 10° ESE daylight
10 Dec - 20:36:51 10° SW 20:40:11 84° NW 20:43:29 10° NE daylight
11 Dec - 11:39:34 10° NNE 11:41:30 15° NE 11:43:27 10° E visible
11 Dec - 13:14:32 10° WNW 13:17:43 42° SW 13:20:56 10° SE visible
11 Dec - 19:45:00 10° SW 19:48:12 45° SE 19:51:23 10° ENE daylight
11 Dec - 21:22:39 10° W 21:24:23 14° NW 21:26:05 10° NNW daylight
12 Dec - 12:22:24 10° NW 12:25:43 90° SW 12:29:04 10° SE visible
12 Dec - 14:01:03 10° SW 14:02:38 13° SSW 14:04:13 10° S visible
12 Dec - 18:53:18 10° SSW 18:56:07 25° SE 18:58:53 10° E daylight
12 Dec - 20:29:42 10° WSW 20:32:35 28° NW 20:35:26 10° NNE daylight
13 Dec - 11:30:39 10° NNW 11:33:47 40° NE 11:36:57 10° ESE visible
13 Dec - 13:07:53 10° W 13:10:24 20° SSW 13:12:57 10° SSE visible
13 Dec - 18:01:50 10° S 18:03:55 15° SSE 18:05:59 10° ESE daylight
13 Dec - 19:37:25 10° SW 19:40:42 61° NW 19:43:56 10° NE daylight
14 Dec - 10:39:28 10° N 10:41:56 19° NE 10:44:24 10° E night (unlit)
14 Dec - 12:15:11 10° WNW 12:18:15 33° SW 12:21:20 10° SSE visible
14 Dec - 17:11:07 10° SSE 17:11:37 10° SSE 17:12:08 10° SSE daylight
14 Dec - 18:45:25 10° SW 18:48:42 60° SE 18:51:58 10° ENE daylight
14 Dec - 20:24:31 10° WNW 20:24:46 10° NW 20:25:02 10° NW daylight
15 Dec - 11:22:52 10° NW 11:26:10 67° SW 11:29:30 10° SE visible
15 Dec - 13:02:14 10° SW 13:03:13 11° SSW 13:04:11 10° S visible
15 Dec - 17:53:37 10° SSW 17:56:37 30° SE 17:59:35 10° E daylight
15 Dec - 19:30:24 10° WSW 19:32:59 21° NW 19:35:31 10° N daylight
16 Dec - 10:30:55 10° NNW 10:34:10 55° NE 10:37:28 10° SE visible
16 Dec - 12:08:40 10° WSW 12:10:54 17° SSW 12:13:09 10° SSE visible
16 Dec - 17:02:00 10° SSW 17:04:25 18° SSE 17:06:49 10° ESE daylight
16 Dec - 18:37:53 10° WSW 18:41:04 44° NW 18:44:13 10° NNE daylight
